Location: Mount Nemo Observatory
(43.4112°N, 79.8736°W)
Time: 08:16:09

Tiangong 1 - Visible Passes

Search period start: 24 March 2018 00:00
Search period end: 03 April 2018 00:00
Orbit: 206 x 228 km, 42.7° (Epoch: 24 March)

Date Brightness Start Highest point End Pass type
(mag) Time Alt. Az. Time Alt. Az. Time Alt. Az.
30 Mar 2.6 06:25:38 10° S 06:26:42 13° SSE 06:27:47 10° ESE visible
31 Mar 2.4 05:59:55 12° S 06:00:37 14° SSE 06:01:47 10° ESE visible
01 Apr 2.6 05:34:09 14° SE 05:34:09 14° SE 05:34:53 10° ESE visible
